Lid_Strength_Index
-0 -0 0 3 11 12 14 13 9 9 10 6 6 7 9 8 9 13 2 1 0 0 -0 -0 -1 -1 -1 -1 -1 -1 -1 -1 -1 -1 -1 -1 -1 -1 -1 -1 -1 -1 -1 -1 -1 -1 -1 -1 -1
0 1 2 6 13 16 15 10 11 9 7 6 6 7 8 9 5 4 3 1 -0 -0 0 -0 -1 -1 -1 -1 -1 -1 -1 -1 -1 -1 -1 -1 -1 -1 -1 -1 -1 -1 -1 -1 -1 -1 -1 -1 -1
0 1 7 10 13 16 15 10 10 8 6 6 7 5 7 8 4 4 1 0 -0 -0 0 -0 -1 -1 -1 -1 -1 -1 -1 -1 -1 -1 -1 -1 -1 -1 -1 -1 -1 -1 -1 -1 -1 -1 -1 -1 -1
2 4 6 12 15 12 11 9 8 8 6 6 6 9 5 3 3 2 0 0 0 0 -0 -1 -1 -1 -1 -1 -1 -1 -1 -1 -1 -1 -1 -1 -1 -1 -1 -1 -1 -1 -1 -1 -1 -1 -1 -1 -1
2 6 12 13 13 11 9 8 7 9 8 7 6 9 8 3 1 1 1 0 1 1 0 -0 -1 -1 -1 -1 -1 -1 -1 -1 -1 -1 -1 -1 -1 -1 -1 -1 -1 -1 -1 -1 -1 -1 -1 -1 -1
7 7 13 15 13 10 8 7 7 8 7 7 7 8 7 3 2 1 1 1 0 0 0 0 -1 -1 -1 -1 -1 -1 -1 -1 -1 -1 -1 -1 -1 -1 -1 -1 -1 -1 -1 -1 -1 -1 -1 -2 -1
9 10 14 13 13 11 9 6 8 8 8 8 5 9 7 4 2 1 1 1 0 -0 0 1 0 -1 -1 -1 -1 -1 -1 -1 -1 -1 -1 -1 -1 -1 -1 -1 -1 -1 -1 -1 -1 -1 -1 -1 -1
7 9 13 12 13 12 8 7 6 7 8 4 4 9 9 4 1 1 1 1 1 1 1 1 1 0 -0 -1 -1 -1 -1 -1 -2 -2 -2 -1 -1 -1 -1 -1 -1 -1 -1 -1 -1 -1 -1 -1 -1
4 11 14 13 12 11 7 8 6 4 6 5 5 5 4 2 1 2 2 2 1 1 1 1 1 1 0 -0 -1 -1 -1 -1 -1 -1 -1 -1 -0 -0 -1 -1 -1 -1 -1 -1 -1 -1 -2 -2 -1
8 12 11 8 9 9 8 8 7 7 7 7 6 4 3 3 3 4 4 3 3 2 1 1 1 1 0 -1 -0 0 -0 0 0 0 -0 -1 -1 -0 -1 -1 -1 -1 -1 -1 -1 -1 -1 -1 -1
8 11 8 8 7 7 8 8 6 8 9 7 7 6 4 4 4 4 3 3 3 2 1 1 1 0 1 0 0 0 1 1 1 -0 -1 -1 -1 -0 -0 -0 -0 -1 -1 -1 -1 -1 -1 -1 -1
10 8 8 7 6 7 8 6 8 7 7 5 5 4 4 4 4 4 4 3 2 2 1 0 -0 0 0 -0 0 0 1 0 -0 -1 -1 -0 0 0 -0 -0 -1 -1 -1 -1 -1 -1 -1 -1 -1
9 8 7 7 7 7 6 8 8 7 5 4 4 4 5 4 4 3 3 2 2 2 1 1 -0 -0 0 0 -0 -0 -0 -0 -0 -1 -1 -1 0 0 0 -0 -0 -1 -1 -1 -1 -1 -1 -1 -1
7 8 8 7 7 7 8 8 7 6 4 5 5 5 4 4 4 3 3 3 2 2 1 0 0 -0 1 0 -0 -0 -0 0 -1 -0 -0 0 0 0 1 0 0 0 -0 -1 -1 -1 -0 -0 -0
7 10 9 8 8 8 7 10 9 6 5 6 6 5 5 4 3 4 3 3 2 2 1 1 0 -0 -0 -0 -0 -0 0 -1 -0 -1 -0 0 -0 -0 0 1 1 0 -0 -1 -1 -0 -0 -0 -0
9 10 14 9 8 8 8 13 9 6 6 7 6 6 5 4 4 3 2 2 2 1 1 1 0 0 0 0 -0 -0 -0 -0 -0 -0 -0 -0 -1 -0 -0 0 1 1 -0 -1 -0 -0 0 0 1
11 15 13 12 8 9 10 12 8 6 6 7 7 6 5 5 4 3 2 2 2 1 1 1 0 0 0 -0 -0 -0 -0 0 0 0 -0 -0 -0 0 1 0 -1 -0 -0 -0 -0 -0 0 1 0
14 15 13 13 10 9 11 11 8 7 7 7 7 6 6 5 5 3 2 2 1 1 1 1 2 1 0 0 0 0 0 1 0 1 0 -1 -0 1 0 0 -0 0 0 0 -0 0 0 0 1
11 13 13 11 9 11 11 11 10 8 7 8 7 7 6 5 4 3 2 2 2 1 1 1 2 1 1 1 1 1 1 1 1 1 -0 -0 -0 1 1 -0 -0 -0 1 1 1 1 2 1 0
11 12 13 10 9 11 12 12 9 8 8 7 7 7 6 5 5 4 3 2 2 2 2 2 1 1 1 1 1 1 1 1 0 0 -1 -1 -0 0 1 0 -0 0 1 0 1 0 1 1 1
12 13 12 13 11 10 11 13 12 9 8 7 6 6 6 6 5 5 4 3 2 2 2 2 1 1 1 1 1 1 0 0 1 1 0 -0 -0 -1 -1 -0 0 0 0 0 0 0 1 2 1
13 9 10 12 14 17 11 18 13 11 10 8 7 7 6 5 5 4 4 3 3 2 2 2 1 1 1 1 1 1 2 2 1 1 0 0 -0 -0 -1 -0 0 1 1 1 0 -0 1 2 2
10 8 10 11 14 14 14 17 14 11 12 10 8 7 6 5 5 5 4 3 2 2 2 2 1 1 1 1 1 2 2 1 1 1 1 1 0 -1 -1 -0 1 2 2 1 0 0 0 1 1
8 10 11 12 14 18 15 15 15 13 12 9 8 7 6 5 5 4 3 3 3 2 2 1 1 1 1 1 2 2 2 2 1 1 1 1 1 0 0 -1 0 1 2 2 2 -0 -0 0 0
10 13 18 20 19 19 16 16 14 10 9 8 8 7 6 5 5 5 4 4 3 3 2 2 2 2 1 1 1 1 1 2 2 1 1 1 1 1 0 -0 0 0 0 0 0 -0 -0 0 0
11 13 16 19 20 17 14 17 13 8 8 7 7 6 6 6 5 5 4 4 3 3 2 2 2 2 1 1 1 1 1 2 2 2 1 1 1 0 0 -0 -0 0 -0 -0 -0 -0 -0 0 0
12 14 13 14 16 16 15 12 9 9 9 8 7 7 7 6 5 5 4 4 3 3 2 2 2 2 2 1 1 1 1 1 2 1 1 1 0 0 -0 -0 -0 -0 -0 -0 -0 0 0 0 0
11 10 13 14 18 19 17 16 15 11 10 9 9 8 7 6 5 5 4 4 3 3 2 2 2 2 1 1 1 1 1 1 1 2 2 1 0 -0 0 0 0 -0 -0 -0 0 0 0 0 0
12 13 14 13 15 17 18 15 10 10 9 9 8 7 7 6 5 5 4 3 3 2 2 2 2 2 2 1 1 1 1 1 1 1 1 0 -0 0 0 0 0 0 0 -0 0 0 0 1 1
13 13 14 15 16 16 15 14 8 8 8 7 7 7 6 5 5 4 4 4 3 3 3 2 2 2 2 1 1 1 1 1 1 1 1 0 0 0 0 0 1 0 0 0 0 1 0 1 1